Location: Newark
(44.3681°N, 100.3364°W)
Time: 06:25:32
(UTC+00:00)

S-56A Canister/Altair - Pass Details

Date: 29 February 2020
Orbit: 634 x 2498 km, 38.9° (Epoch: 07 April)

Event Time Altitude Azimuth Distance (km) Brightness Sun altitude
Rises 19:29:37 0° 275° (W) 5,848 12.1 37.4°
Reaches altitude 10° 19:33:16 10° 273° (W) 4,980 11.9 37.3°
Maximum altitude 19:47:48 63° 197° (SSW) 2,691 11.7 36.7°
Drops below altitude 10° 20:01:31 10° 121° (ESE) 4,721 11.8 35.9°
Sets 20:04:53 0° 118° (ESE) 5,538 12.0 35.7°
